Simultaneous Nadir Overpasses (SNOs) Predictions

Prediction of SNOs between GOES-15 and TERRA Satellite Orbit:

Table of predicted SNOs for the next 14.0 days since TLE Epoch: 5/14/2022
Index Date Time (GOES-15) GOES-15 Lat,Lon TERRA Lat,Lon Distance(km) Time Diff (sec)
1 05/14/2022 18:46:47 -0.18,-127.78 -0.47,-126.45 151.47 80
2 05/15/2022 07:08:10 0.18,-127.71 -0.64,-131.64 447.18 80
3 05/16/2022 18:34:31 -0.19,-127.71 -1.11,-123.49 479.90 80
4 05/17/2022 06:55:53 0.18,-127.63 -0.06,-128.67 119.06 80
5 05/19/2022 06:40:57 0.19,-127.54 0.60,-125.72 208.22 80
6 05/19/2022 19:02:11 -0.19,-127.58 0.50,-130.87 374.36 80
7 05/21/2022 18:49:54 -0.20,-127.49 -0.11,-127.91 47.37 80
8 05/23/2022 18:40:17 -0.20,-127.40 -0.73,-124.94 279.80 80
9 05/24/2022 07:01:39 0.19,-127.32 -0.43,-130.12 318.66 80
10 05/26/2022 06:46:42 0.20,-127.24 0.21,-127.16 8.63 80
